MiSS Sylvia — WDE5412 — position and weather

sailwx.info

Track history (hours):
 
Tides and Currents Weather Stations Pressure Air Temp Water Temp Dewpoint Dewpoint Depression Visibility Wind Speed Wind Dir Waves Ship Positions

MiSS Sylvia

Owner: DOUBLE J MARINE, LLC, LAPLACE, LA. More information available from US FCC via Universal Licensing System and Coast Guard Vessel Documentation Center.

Last reported at 2014-Nov-22 05:31 UTC. Time now 2014-Nov-23 03:45 UTC.
Position N 29°57' W 090°01'.

Length 20 m; draft 2.7 m.

Type: Towing. MMSI: 367366340.

Date/timePositionNaut miles runAvg speedWind from/ knotsBaromVisibWave heightAir tempDewpointWater temp
2014-Nov-22 05:31N 29°57' W 090°01'0 0.3
2014-Nov-22 04:30N 29°57' W 090°01'6 4.1
2014-Nov-22 03:09N 29°55' W 090°07'2 2.2
2014-Nov-22 02:13N 29°56' W 090°09'0 0.1
2014-Nov-22 01:32N 29°56' W 090°08'0 0.0
2014-Nov-22 00:28N 29°56' W 090°08'0 0.1
2014-Nov-21 23:32N 29°56' W 090°08'  
2014-Nov-17 12:14N 29°54' W 090°07'0 0.0
2014-Nov-17 11:30N 29°54' W 090°07'0 0.0
2014-Nov-17 10:33N 29°54' W 090°07'0 0.0
2014-Nov-17 09:31N 29°54' W 090°07'0 0.0
2014-Nov-17 07:32N 29°54' W 090°07'0 0.0
2014-Nov-17 06:31N 29°54' W 090°07'0 0.2
2014-Nov-17 05:29N 29°55' W 090°07'3 2.7
2014-Nov-17 04:32N 29°55' W 090°04'3 2.9
2014-Nov-17 03:33N 29°57' W 090°01'2 0.1
2014-Nov-16 00:32N 29°56' W 089°59'2 2.4
2014-Nov-15 23:32N 29°57' W 090°02'3 2.8
2014-Nov-15 22:33N 29°55' W 090°04'  
Track history (hours):
 
Tides and Currents Weather Stations Pressure Air Temp Water Temp Dewpoint Dewpoint Depression Visibility Wind Speed Wind Dir Waves Ship Positions

MiSS Sylvia

Owner: DOUBLE J MARINE, LLC, LAPLACE, LA. More information available from US FCC via Universal Licensing System and Coast Guard Vessel Documentation Center.

Last reported at 2014-Nov-22 05:31 UTC. Time now 2014-Nov-23 03:45 UTC.
Position N 29°57' W 090°01'.

Length 20 m; draft 2.7 m.

Type: Towing. MMSI: 367366340.

Date/timePositionNaut miles runAvg speedWind from/ knotsBaromVisibWave heightAir tempDewpointWater temp
2014-Nov-22 05:31N 29°57' W 090°01'0 0.3
2014-Nov-22 04:30N 29°57' W 090°01'6 4.1
2014-Nov-22 03:09N 29°55' W 090°07'2 2.2
2014-Nov-22 02:13N 29°56' W 090°09'0 0.1
2014-Nov-22 01:32N 29°56' W 090°08'0 0.0
2014-Nov-22 00:28N 29°56' W 090°08'0 0.1
2014-Nov-21 23:32N 29°56' W 090°08'  
2014-Nov-17 12:14N 29°54' W 090°07'0 0.0
2014-Nov-17 11:30N 29°54' W 090°07'0 0.0
2014-Nov-17 10:33N 29°54' W 090°07'0 0.0
2014-Nov-17 09:31N 29°54' W 090°07'0 0.0
2014-Nov-17 07:32N 29°54' W 090°07'0 0.0
2014-Nov-17 06:31N 29°54' W 090°07'0 0.2
2014-Nov-17 05:29N 29°55' W 090°07'3 2.7
2014-Nov-17 04:32N 29°55' W 090°04'3 2.9
2014-Nov-17 03:33N 29°57' W 090°01'2 0.1
2014-Nov-16 00:32N 29°56' W 089°59'2 2.4
2014-Nov-15 23:32N 29°57' W 090°02'3 2.8
2014-Nov-15 22:33N 29°55' W 090°04'  

Dump ship's entire track history